Torna al catalogo

CZ-3C DEB

AttivoHEO
NORAD 40194·DEBRIS·🇨🇳 China

Lanciato Feb 24, 2012 da Xichang Satellite Launch Center

Loading…

Prossimi Passaggi (prossime 24 ore)

TLE

AggiornatoSource: Space-Track

Epoca: Sep 11, 2026, 08:39 UTC

1 40194U 12008D   26254.36095146 -.00000141  00000-0  00000-0 0  9999
2 40194  20.9354 323.8082 6428016  98.5483 333.8297  2.12993939 99744

Traccia CZ-3C DEB in tempo reale con AllMySat

Download on the App Store